 day,  time,  air_temp(C),  RH(%),  ground_temp10cm(C),  ground_temp20cm(C),  ground_temp40cm(C),  precipitation(mm/h),  Solar_Radiation(MJ/m2h),  lack, 
 06/02/01, 01:00,   2.3,  86,   0.6,   1.2,   2.4,   0.5,  0.00, 
 06/02/01, 02:00,   2.4,  83,   0.6,   1.1,   2.4,   0.0,  0.00, 
 06/02/01, 03:00,   2.1,  88,   0.6,   1.2,   2.4,   0.0,  0.00, 
 06/02/01, 04:00,   1.2,  97,   0.6,   1.1,   2.4,   0.0,  0.00, 
 06/02/01, 05:00,   3.2,  89,   0.6,   1.1,   2.4,   0.0,  0.00, 
 06/02/01, 06:00,   3.7,  87,   0.6,   1.2,   2.4,   0.0,  0.00, 
 06/02/01, 07:00,   1.7,  98,   0.6,   1.1,   2.3,   0.0,  0.00, 
 06/02/01, 08:00,   2.5,  99,   0.6,   1.2,   2.4,   0.0,  0.01, 
 06/02/01, 09:00,   4.8,  89,   0.6,   1.2,   2.4,   0.0,  0.12, 
 06/02/01, 10:00,   3.8,  98,   0.6,   1.2,   2.4,   0.5,  0.13, 
 06/02/01, 11:00,   4.2,  99,   0.7,   1.2,   2.4,   2.0,  0.19, 
 06/02/01, 12:00,   4.2,  99,   0.7,   1.2,   2.4,   5.0,  0.15, 
 06/02/01, 13:00,   3.9,  99,   0.7,   1.2,   2.4,   3.0,  0.16, 
 06/02/01, 14:00,   3.7,  99,   0.7,   1.2,   2.4,   3.0,  0.14, 
 06/02/01, 15:00,   1.0,  99,   0.7,   1.2,   2.4,   5.0,  0.03, 
 06/02/01, 16:00,  -0.9,  99,   0.7,   1.2,   2.4,   4.5,  0.00, 
 06/02/01, 17:00,  -1.1,  99,   0.7,   1.2,   2.4,   3.0,  0.00, 
 06/02/01, 18:00,  -1.9,  99,   0.7,   1.2,   2.4,   2.0,  0.00, 
 06/02/01, 19:00,  -3.5,  99,   0.7,   1.2,   2.4,   1.0,  0.00, 
 06/02/01, 20:00,  -3.9,  99,   0.7,   1.2,   2.3,   0.0,  0.00, 
 06/02/01, 21:00,  -3.8,  99,   0.7,   1.2,   2.3,   0.0,  0.00, 
 06/02/01, 22:00,  -3.9,  99,   0.7,   1.2,   2.3,   0.0,  0.00, 
 06/02/01, 23:00,  -4.3,  99,   0.7,   1.2,   2.3,   0.0,  0.00, 
 06/02/02, 00:00,  -4.6,  98,   0.7,   1.2,   2.3,   0.0,  0.00, 
 06/02/02, 01:00,  -4.8,  98,   0.7,   1.2,   2.3,   0.5,  0.00, 
 06/02/02, 02:00,  -4.9,  97,   0.7,   1.2,   2.3,   0.0,  0.00, 
 06/02/02, 03:00,  -5.2,  98,   0.7,   1.2,   2.3,   0.0,  0.00, 
 06/02/02, 04:00,  -5.9,  96,   0.7,   1.2,   2.3,   0.0,  0.00, 
 06/02/02, 05:00,  -6.6,  95,   0.7,   1.2,   2.3,   0.0,  0.00, 
 06/02/02, 06:00,  -6.3,  87,   0.7,   1.2,   2.3,   0.0,  0.00, 
 06/02/02, 07:00,  -6.5,  86,   0.7,   1.2,   2.3,   0.0,  0.00, 
 06/02/02, 08:00,  -7.2,  95,   0.7,   1.2,   2.3,   0.0,  0.06, 
 06/02/02, 09:00,  -5.2,  91,   0.7,   1.2,   2.3,   0.0,  0.50, 
 06/02/02, 10:00,  -4.6,  99,   0.7,   1.2,   2.3,   2.5,  0.78, 
 06/02/02, 11:00,  -3.9,  97,   0.7,   1.2,   2.3,   0.0,  0.85, 
 06/02/02, 12:00,  -3.9,  86,   0.7,   1.2,   2.3,   0.0,  1.10, 
 06/02/02, 13:00,  -2.9,  86,   0.7,   1.2,   2.3,   0.0,  1.43, 
 06/02/02, 14:00,  -3.2,  80,   0.7,   1.2,   2.3,   0.0,  0.77, 
 06/02/02, 15:00,  -3.5,  75,   0.7,   1.2,   2.3,   0.0,  1.08, 
 06/02/02, 16:00,  -3.2,  77,   0.8,   1.2,   2.3,   0.5,  0.59, 
 06/02/02, 17:00,  -3.6,  93,   0.8,   1.2,   2.3,   0.0,  0.10, 
 06/02/02, 18:00,  -3.9,  89,   0.8,   1.2,   2.3,   0.0,  0.00, 
 06/02/02, 19:00,  -4.5,  87,   0.8,   1.2,   2.3,   0.0,  0.00, 
 06/02/02, 20:00,  -5.1,  88,   0.8,   1.2,   2.3,   0.0,  0.00, 
 06/02/02, 21:00,  -5.4,  86,   0.8,   1.2,   2.3,   0.0,  0.00, 
 06/02/02, 22:00,  -4.9,  85,   0.8,   1.2,   2.3,   0.0,  0.00, 
 06/02/02, 23:00,  -4.7,  87,   0.8,   1.2,   2.3,   0.0,  0.00, 
 06/02/03, 00:00,  -4.7,  92,   0.8,   1.2,   2.3,   0.0,  0.00, 
 06/02/03, 01:00,  -4.7,  94,   0.8,   1.2,   2.3,   0.0,  0.00, 
 06/02/03, 02:00,  -4.6,  96,   0.7,   1.2,   2.3,   0.0,  0.00, 
 06/02/03, 03:00,  -4.6,  98,   0.8,   1.2,   2.3,   0.0,  0.00, 
 06/02/03, 04:00,  -4.4,  99,   0.7,   1.2,   2.3,   0.0,  0.00, 
 06/02/03, 05:00,  -4.4,  98,   0.7,   1.2,   2.3,   0.0,  0.00, 
 06/02/03, 06:00,  -4.5,  99,   0.7,   1.2,   2.3,   0.0,  0.00, 
 06/02/03, 07:00,  -4.6,  99,   0.7,   1.2,   2.3,   0.0,  0.00, 
 06/02/03, 08:00,  -4.7,  99,   0.7,   1.1,   2.2,   0.0,  0.00, 
 06/02/03, 09:00,  -5.0,  98,   0.7,   1.2,   2.3,   0.5,  0.06, 
 06/02/03, 10:00,  -4.9,  89,   0.7,   1.2,   2.3,   0.0,  0.24, 
 06/02/03, 11:00,  -4.2,  87,   0.7,   1.3,   2.3,   0.0,  0.36, 
 06/02/03, 12:00,  -4.7,  97,   0.7,   1.2,   2.3,   0.0,  0.25, 
 06/02/03, 13:00,  -4.9,  98,   0.7,   1.2,   2.3,   0.5,  0.19, 
 06/02/03, 14:00,  -6.2,  97,   0.7,   1.2,   2.3,   1.0,  0.15, 
 06/02/03, 15:00,  -6.8,  96,   0.7,   1.3,   2.3,   0.0,  0.74, 
 06/02/03, 16:00,  -9.0,  84,   0.7,   1.3,   2.3,   0.5,  0.37, 
 06/02/03, 17:00, -10.3,  89,   0.7,   1.3,   2.3,   0.0,  0.14, 
 06/02/03, 18:00, -11.3,  91,   0.7,   1.3,   2.3,   0.0,  0.00, 
 06/02/03, 19:00, -11.8,  89,   0.7,   1.3,   2.3,   0.0,  0.00, 
 06/02/03, 20:00, -12.2,  86,   0.7,   1.2,   2.3,   0.5,  0.00, 
 06/02/03, 21:00, -13.0,  89,   0.7,   1.2,   2.2,   0.0,  0.00, 
 06/02/03, 22:00, -13.0,  91,   0.7,   1.2,   2.3,   0.0,  0.00, 
 06/02/03, 23:00, -13.4,  90,   0.8,   1.2,   2.3,   0.5,  0.00, 
 06/02/04, 00:00, -13.7,  91,   0.8,   1.2,   2.2,   0.0,  0.00, 
 06/02/04, 01:00, -14.2,  86,   0.8,   1.2,   2.3,   0.5,  0.00, 
 06/02/04, 02:00, -14.4,  87,   0.8,   1.2,   2.2,   0.0,  0.00, 
 06/02/04, 03:00, -15.1,  85,   0.8,   1.2,   2.3,   0.5,  0.00, 
 06/02/04, 04:00, -15.2,  90,   0.8,   1.2,   2.3,   0.0,  0.00, 
 06/02/04, 05:00, -14.8,  91,   0.8,   1.2,   2.2,   0.0,  0.00, 
 06/02/04, 06:00, -14.8,  91,   0.8,   1.2,   2.2,   0.0,  0.00, 
 06/02/04, 07:00, -14.9,  90,   0.8,   1.2,   2.2,   0.0,  0.00, 
 06/02/04, 08:00, -14.5,  90,   0.8,   1.2,   2.2,   0.0,  0.06, 
 06/02/04, 09:00, -13.2,  87,   0.8,   1.2,   2.3,   0.0,  0.65, 
 06/02/04, 10:00, -12.0,  84,   0.8,   1.2,   2.2,   0.0,  0.91, 
 06/02/04, 11:00, -11.8,  80,   0.8,   1.3,   2.3,   0.0,  0.91, 
 06/02/04, 12:00, -11.3,  80,   0.8,   1.2,   2.3,   0.5,  1.11, 
 06/02/04, 13:00, -10.8,  74,   0.8,   1.2,   2.3,   0.0,  1.02, 
 06/02/04, 14:00,  -9.6,  71,   0.8,   1.2,   2.3,   0.0,  1.15, 
 06/02/04, 15:00, -11.0,  63,   0.8,   1.2,   2.3,   0.0,  1.03, 
 06/02/04, 16:00, -10.9,  72,   0.8,   1.2,   2.2,   0.0,  0.57, 
 06/02/04, 17:00, -11.6,  75,   0.8,   1.2,   2.2,   0.0,  0.32, 
 06/02/04, 18:00, -13.2,  86,   0.8,   1.2,   2.2,   0.0,  0.05, 
 06/02/04, 19:00, -13.1,  84,   0.8,   1.2,   2.2,   0.0,  0.00, 
 06/02/04, 20:00, -12.3,  73,   0.8,   1.2,   2.2,   0.0,  0.00, 
 06/02/04, 21:00, -14.1,  82,   0.8,   1.2,   2.2,   0.0,  0.00, 
 06/02/04, 22:00, -14.0,  84,   0.8,   1.2,   2.2,   0.0,  0.00, 
 06/02/04, 23:00, -13.3,  87,   0.8,   1.2,   2.2,   0.0,  0.00, 
 06/02/05, 00:00, -12.6,  94,   0.7,   1.2,   2.2,   0.0,  0.00, 
 06/02/05, 01:00, -12.6,  91,   0.7,   1.2,   2.2,   0.5,  0.00, 
 06/02/05, 02:00, -12.6,  91,   0.7,   1.2,   2.2,   1.0,  0.00, 
 06/02/05, 03:00, -12.1,  89,   0.7,   1.2,   2.2,   0.0,  0.00, 
 06/02/05, 04:00, -11.9,  89,   0.7,   1.2,   2.2,   0.5,  0.00, 
 06/02/05, 05:00, -12.0,  91,   0.7,   1.2,   2.2,   0.5,  0.00, 
 06/02/05, 06:00, -12.1,  92,   0.7,   1.2,   2.2,   0.0,  0.00, 
 06/02/05, 07:00, -12.4,  89,   0.7,   1.2,   2.2,   0.5,  0.00, 
 06/02/05, 08:00, -12.4,  90,   0.7,   1.2,   2.2,   0.5,  0.07, 
 06/02/05, 09:00, -11.7,  93,   0.7,   1.2,   2.2,   0.0,  0.44, 
 06/02/05, 10:00, -11.1,  85,   0.8,   1.2,   2.2,   0.0,  0.85, 
 06/02/05, 11:00, -10.0,  79,   0.8,   1.2,   2.2,   0.0,  1.23, 
 06/02/05, 12:00, -10.6,  74,   0.8,   1.2,   2.2,   0.0,  1.65, 
 06/02/05, 13:00,  -9.5,  69,   0.8,   1.2,   2.3,   0.0,  1.68, 
 06/02/05, 14:00,  -9.7,  75,   0.8,   1.2,   2.3,   0.0,  1.33, 
 06/02/05, 15:00,  -9.2,  74,   0.8,   1.2,   2.2,   0.5,  1.71, 
 06/02/05, 16:00,  -9.8,  73,   0.8,   1.2,   2.2,   0.0,  0.89, 
 06/02/05, 17:00, -10.7,  77,   0.7,   1.2,   2.2,   0.0,  0.28, 
 06/02/05, 18:00, -12.0,  83,   0.7,   1.2,   2.2,   0.0,  0.01, 
 06/02/05, 19:00, -11.2,  74,   0.7,   1.2,   2.2,   0.0,  0.00, 
 06/02/05, 20:00, -13.7,  83,   0.6,   1.2,   2.2,   0.0,  0.00, 
 06/02/05, 21:00, -12.3,  73,   0.7,   1.2,   2.2,   0.0,  0.00, 
 06/02/05, 22:00, -11.7,  67,   0.6,   1.2,   2.2,   0.0,  0.00, 
 06/02/05, 23:00, -12.5,  73,   0.7,   1.2,   2.2,   0.0,  0.00, 
 06/02/06, 00:00, -10.9,  62,   0.7,   1.2,   2.2,   0.0,  0.00, 
 06/02/06, 01:00, -12.2,  77,   0.7,   1.2,   2.2,   0.0,  0.00, 
 06/02/06, 02:00, -12.0,  78,   0.6,   1.2,   2.2,   0.0,  0.00, 
 06/02/06, 03:00, -11.6,  73,   0.7,   1.2,   2.2,   0.0,  0.00, 
 06/02/06, 04:00, -11.3,  75,   0.7,   1.2,   2.2,   0.0,  0.00, 
 06/02/06, 05:00, -11.4,  77,   0.6,   1.2,   2.2,   0.0,  0.00, 
 06/02/06, 06:00, -10.5,  75,   0.6,   1.2,   2.2,   0.0,  0.00, 
 06/02/06, 07:00,  -9.6,  77,   0.6,   1.2,   2.2,   0.0,  0.00, 
 06/02/06, 08:00,  -8.3,  70,   0.6,   1.2,   2.2,   0.0,  0.04, 
 06/02/06, 09:00,  -7.1,  82,   0.7,   1.2,   2.2,   0.0,  0.19, 
 06/02/06, 10:00,  -7.8,  90,   0.7,   1.2,   2.2,   0.0,  0.38, 
 06/02/06, 11:00,  -6.8,  89,   0.6,   1.2,   2.2,   0.5,  0.77, 
 06/02/06, 12:00,  -4.9,  82,   0.6,   1.2,   2.2,   0.0,  0.92, 
 06/02/06, 13:00,  -2.9,  77,   0.6,   1.1,   2.2,   0.0,  1.71, 
 06/02/06, 14:00,  -3.5,  80,   0.6,   1.1,   2.2,   0.0,  0.91, 
 06/02/06, 15:00,  -3.8,  89,   0.6,   1.1,   2.2,   0.0,  0.27, 
 06/02/06, 16:00,  -3.0,  90,   0.6,   1.1,   2.2,   0.0,  0.31, 
 06/02/06, 17:00,  -2.8,  97,   0.6,   1.1,   2.2,   0.0,  0.09, 
 06/02/06, 18:00,  -2.6,  94,   0.6,   1.1,   2.2,   1.0,  0.00, 
 06/02/06, 19:00,  -3.1,  99,   0.6,   1.1,   2.2,   0.0,  0.00, 
 06/02/06, 20:00,  -1.8,  96,   0.6,   1.1,   2.2,   1.0,  0.00, 
 06/02/06, 21:00,  -1.7,  99,   0.6,   1.1,   2.2,   1.0,  0.00, 
 06/02/06, 22:00,  -1.4,  99,   0.6,   1.1,   2.2,   1.5,  0.00, 
 06/02/06, 23:00,  -1.0,  99,   0.6,   1.1,   2.2,   1.0,  0.00, 
 06/02/07, 00:00,  -0.9,  99,   0.5,   1.1,   2.2,   0.5,  0.00, 
 06/02/07, 01:00,  -0.6,  99,   0.6,   1.1,   2.2,   0.5,  0.00, 
 06/02/07, 02:00,   1.1,  99,   0.5,   1.1,   2.2,   0.0,  0.00, 
 06/02/07, 03:00,   2.0,  98,   0.6,   1.1,   2.2,   0.0,  0.00, 
 06/02/07, 04:00,   2.1,  99,   0.6,   1.1,   2.2,   0.5,  0.00, 
 06/02/07, 05:00,   2.7,  99,   0.6,   1.1,   2.2,   0.0,  0.00, 
 06/02/07, 06:00,   2.7,  99,   0.6,   1.1,   2.2,   0.0,  0.00, 
 06/02/07, 07:00,   2.6,  99,   0.6,   1.1,   2.2,   0.0,  0.00, 
 06/02/07, 08:00,   2.3,  99,   0.6,   1.1,   2.2,   0.0,  0.05, 
 06/02/07, 09:00,   2.2,  99,   0.6,   1.1,   2.2,   0.0,  0.18, 
 06/02/07, 10:00,   1.6,  99,   0.6,   1.1,   2.2,   0.0,  0.19, 
 06/02/07, 11:00,   1.4,  99,   0.6,   1.1,   2.2,   0.0,  0.30, 
 06/02/07, 12:00,   0.5,  99,   0.6,   1.1,   2.2,   1.5,  0.14, 
 06/02/07, 13:00,   0.3,  99,   0.6,   1.1,   2.2,   0.0,  0.23, 
 06/02/07, 14:00,  -0.4,  99,   0.6,   1.1,   2.2,   0.5,  0.17, 
 06/02/07, 15:00,   0.0,  99,   0.6,   1.1,   2.2,   0.5,  0.41, 
 06/02/07, 16:00,  -0.7,  95,   0.6,   1.1,   2.2,   0.0,  0.49, 
 06/02/07, 17:00,  -1.8,  99,   0.6,   1.1,   2.2,   0.0,  0.08, 
 06/02/07, 18:00,  -3.1,  99,   0.6,   1.1,   2.2,   1.0,  0.00, 
 06/02/07, 19:00,  -4.0,  94,   0.6,   1.1,   2.2,   0.0,  0.00, 
 06/02/07, 20:00,  -4.6,  99,   0.6,   1.1,   2.2,   0.0,  0.00, 
 06/02/07, 21:00,  -5.2,  99,   0.6,   1.1,   2.2,   0.5,  0.00, 
 06/02/07, 22:00,  -5.4,  94,   0.6,   1.1,   2.2,   0.0,  0.00, 
 06/02/07, 23:00,  -5.5,  99,   0.6,   1.1,   2.2,   0.0,  0.00, 
 06/02/08, 00:00,  -5.5,  98,   0.6,   1.1,   2.2,   1.0,  0.00, 
 06/02/08, 01:00,  -5.5,  99,   0.6,   1.1,   2.2,   1.0,  0.00, 
 06/02/08, 02:00,  -5.4,  98,   0.6,   1.1,   2.2,   1.5,  0.00, 
 06/02/08, 03:00,  -5.5,  99,   0.6,   1.1,   2.2,   0.5,  0.00, 
 06/02/08, 04:00,  -5.5,  98,   0.6,   1.1,   2.2,   0.0,  0.00, 
 06/02/08, 05:00,  -5.5,  98,   0.6,   1.1,   2.2,   1.0,  0.00, 
 06/02/08, 06:00,  -5.4,  98,   0.6,   1.1,   2.2,   1.5,  0.00, 
 06/02/08, 07:00,  -6.0,  99,   0.6,   1.1,   2.2,   0.0,  0.00, 
 06/02/08, 08:00,  -6.0,  97,   0.6,   1.1,   2.2,   0.0,  0.11, 
 06/02/08, 09:00,  -5.5,  98,   0.6,   1.1,   2.2,   0.5,  0.22, 
 06/02/08, 10:00,  -5.2,  99,   0.5,   1.1,   2.2,   0.0,  0.29, 
 06/02/08, 11:00,  -4.9,  97,   0.6,   1.1,   2.2,   1.5,  0.27, 
 06/02/08, 12:00,  -4.3,  99,   0.6,   1.1,   2.2,   0.0,  0.30, 
 06/02/08, 13:00,  -4.0,  99,   0.6,   1.1,   2.2,   0.5,  0.31, 
 06/02/08, 14:00,  -4.6,  99,   0.6,   1.1,   2.2,   0.5,  0.20, 
 06/02/08, 15:00,  -5.8,  99,   0.6,   1.1,   2.2,   3.0,  0.16, 
 06/02/08, 16:00,  -6.0,  99,   0.6,   1.1,   2.2,   1.5,  0.23, 
 06/02/08, 17:00,  -6.1,  99,   0.6,   1.1,   2.2,   0.0,  0.07, 
 06/02/08, 18:00,  -6.7,  99,   0.6,   1.1,   2.2,   1.5,  0.00, 
 06/02/08, 19:00,  -7.1,  99,   0.6,   1.1,   2.2,   0.5,  0.00, 
 06/02/08, 20:00,  -7.4,  99,   0.6,   1.1,   2.2,   0.0,  0.00, 
 06/02/08, 21:00,  -7.2,  99,   0.6,   1.1,   2.2,   1.0,  0.00, 
 06/02/08, 22:00,  -7.5,  99,   0.5,   1.1,   2.2,   1.0,  0.00, 
 06/02/08, 23:00,  -8.3,  97,   0.6,   1.1,   2.2,   0.5,  0.00, 
 06/02/09, 00:00,  -8.6,  98,   0.7,   1.1,   2.2,   0.0,  0.00, 
 06/02/09, 01:00,  -9.1,  95,   0.7,   1.1,   2.2,   0.5,  0.00, 
 06/02/09, 02:00,  -9.9,  94,   0.7,   1.1,   2.2,   0.0,  0.00, 
 06/02/09, 03:00, -10.0,  96,   0.7,   1.1,   2.2,   0.5,  0.00, 
 06/02/09, 04:00, -10.3,  97,   0.7,   1.1,   2.2,   0.5,  0.00, 
 06/02/09, 05:00, -10.8,  97,   0.7,   1.1,   2.2,   0.0,  0.00, 
 06/02/09, 06:00, -11.0,  95,   0.7,   1.1,   2.2,   0.0,  0.00, 
 06/02/09, 07:00, -11.5,  95,   0.7,   1.1,   2.2,   0.5,  0.00, 
 06/02/09, 08:00, -11.6,  95,   0.7,   1.1,   2.2,   0.0,  0.05, 
 06/02/09, 09:00, -11.4,  96,   0.7,   1.1,   2.2,   0.5,  0.07, 
 06/02/09, 10:00, -11.0,  97,   0.7,   1.1,   2.2,   0.0,  0.08, 
 06/02/09, 11:00, -10.2,  99,   0.7,   1.1,   2.2,   0.0,  0.10, 
 06/02/09, 12:00,  -9.1,  99,   0.7,   1.1,   2.2,   0.0,  1.14, 
 06/02/09, 13:00,  -8.8,  99,   0.7,   1.1,   2.3,   0.0,  1.33, 
 06/02/09, 14:00,  -7.4,  99,   0.7,   1.2,   2.2,   0.0,  1.93, 
 06/02/09, 15:00,  -8.7,  99,   0.7,   1.2,   2.3,   0.0,  1.56, 
 06/02/09, 16:00,  -8.6,  89,   0.7,   1.2,   2.3,   0.5,  1.55, 
 06/02/09, 17:00,  -9.1,  81,   0.8,   1.2,   2.3,   0.0,  0.38, 
 06/02/09, 18:00, -10.4,  88,   0.7,   1.2,   2.3,   0.0,  0.00, 
 06/02/09, 19:00, -11.5,  86,   0.7,   1.2,   2.2,   0.0,  0.00, 
 06/02/09, 20:00, -10.4,  83,   0.7,   1.1,   2.2,   0.0,  0.00, 
 06/02/09, 21:00, -13.0,  89,   0.7,   1.1,   2.2,   0.0,  0.00, 
 06/02/09, 22:00, -13.0,  86,   0.7,   1.2,   2.2,   0.0,  0.00, 
 06/02/09, 23:00, -13.9,  87,   0.7,   1.1,   2.2,   0.0,  0.00, 
 06/02/10, 00:00, -12.2,  83,   0.7,   1.1,   2.2,   0.0,  0.00, 
 06/02/10, 01:00, -12.4,  87,   0.7,   1.1,   2.2,   0.0,  0.00, 
 06/02/10, 02:00, -11.6,  90,   0.7,   1.1,   2.2,   0.0,  0.00, 
 06/02/10, 03:00, -11.2,  89,   0.7,   1.1,   2.2,   0.0,  0.00, 
 06/02/10, 04:00, -11.5,  88,   0.7,   1.1,   2.2,   0.0,  0.00, 
 06/02/10, 05:00, -10.6,  77,   0.7,   1.1,   2.2,   0.0,  0.00, 
 06/02/10, 06:00,  -9.9,  72,   0.7,   1.1,   2.2,   0.0,  0.00, 
 06/02/10, 07:00, -11.7,  78,   0.7,   1.2,   2.2,   0.0,  0.00, 
 06/02/10, 08:00, -10.0,  79,   0.7,   1.1,   2.2,   0.0,  0.23, 
 06/02/10, 09:00,  -8.1,  81,   0.7,   1.2,   2.2,   0.0,  0.85, 
 06/02/10, 10:00,  -6.3,  87,   0.7,   1.2,   2.2,   0.5,  1.66, 
 06/02/10, 11:00,  -4.7,  98,   0.7,   1.2,   2.2,   0.0,  2.48, 
 06/02/10, 12:00,  -4.3,  89,   0.7,   1.2,   2.3,   0.0,  2.15, 
 06/02/10, 13:00,  -4.3,  95,   0.7,   1.3,   2.3,   0.0,  1.10, 
 06/02/10, 14:00,  -3.7,  84,   0.7,   1.1,   2.2,   0.0,  1.54, 
 06/02/10, 15:00,  -5.0,  82,   0.8,   1.3,   2.3,   0.0,  1.41, 
 06/02/10, 16:00,  -5.4,  84,   0.8,   1.3,   2.3,   0.0,  1.27, 
 06/02/10, 17:00,  -5.8,  80,   0.7,   1.2,   2.3,   0.0,  0.35, 
 06/02/10, 18:00,  -6.8,  90,   0.7,   1.2,   2.2,   0.0,  0.04, 
 06/02/10, 19:00,  -7.4,  92,   0.7,   1.2,   2.3,   0.0,  0.00, 
 06/02/10, 20:00,  -6.9,  90,   0.7,   1.1,   2.2,   0.0,  0.00, 
 06/02/10, 21:00,  -6.7,  91,   0.7,   1.2,   2.3,   0.0,  0.00, 
 06/02/10, 22:00,  -6.4,  92,   0.7,   1.1,   2.2,   0.0,  0.00, 
 06/02/10, 23:00,  -6.4,  94,   0.7,   1.1,   2.2,   0.0,  0.00, 
 06/02/11, 00:00,  -6.0,  95,   0.7,   1.1,   2.2,   0.0,  0.00, 
 06/02/11, 01:00,  -5.9,  96,   0.7,   1.1,   2.2,   0.0,  0.00, 
 06/02/11, 02:00,  -5.7,  96,   0.7,   1.1,   2.2,   0.0,  0.00, 
 06/02/11, 03:00,  -5.8,  97,   0.7,   1.1,   2.2,   0.0,  0.00, 
 06/02/11, 04:00,  -5.7,  97,   0.7,   1.1,   2.2,   0.0,  0.00, 
 06/02/11, 05:00,  -5.7,  97,   0.7,   1.1,   2.2,   0.0,  0.00, 
 06/02/11, 06:00,  -5.4,  97,   0.7,   1.1,   2.2,   0.0,  0.00, 
 06/02/11, 07:00,  -5.3,  97,   0.7,   1.1,   2.2,   0.0,  0.00, 
 06/02/11, 08:00,  -5.0,  98,   0.7,   1.1,   2.2,   0.0,  0.01, 
 06/02/11, 09:00,  -4.4,  97,   0.7,   1.1,   2.2,   0.5,  0.25, 
 06/02/11, 10:00,  -3.2,  96,   0.7,   1.1,   2.2,   0.0,  0.57, 
 06/02/11, 11:00,  -3.0,  99,   0.7,   1.1,   2.2,   0.0,  0.56, 
 06/02/11, 12:00,  -2.0,  99,   0.7,   1.1,   2.2,   0.0,  0.64, 
 06/02/11, 13:00,  -1.8,  99,   0.7,   1.1,   2.2,   0.0,  0.64, 
 06/02/11, 14:00,  -2.9,  97,   0.7,   1.1,   2.2,   0.5,  0.35, 
 06/02/11, 15:00,  -2.7,  95,   0.7,   1.1,   2.2,   0.0,  0.26, 
 06/02/11, 16:00,  -3.0,  96,   0.7,   1.1,   2.2,   0.0,  0.15, 
 06/02/11, 17:00,  -3.5,  98,   0.7,   1.1,   2.2,   1.0,  0.00, 
 06/02/11, 18:00,  -4.2,  99,   0.7,   1.1,   2.2,   0.5,  0.00, 
 06/02/11, 19:00,  -4.3,  99,   0.7,   1.1,   2.2,   0.5,  0.00, 
 06/02/11, 20:00,  -4.4,  99,   0.7,   1.1,   2.2,   0.5,  0.00, 
 06/02/11, 21:00,  -4.7,  99,   0.7,   1.1,   2.2,   0.0,  0.00, 
 06/02/11, 22:00,  -4.7,  99,   0.7,   1.1,   2.2,   0.5,  0.00, 
 06/02/11, 23:00,  -4.8,  99,   0.7,   1.1,   2.2,   0.5,  0.00, 
 06/02/12, 00:00,  -4.9,  99,   0.7,   1.1,   2.2,   0.5,  0.00, 
 06/02/12, 01:00,  -5.3,  94,   0.7,   1.1,   2.2,   0.5,  0.00, 
 06/02/12, 02:00,  -7.0,  98,   0.7,   1.1,   2.2,   0.5,  0.00, 
 06/02/12, 03:00,  -7.9,  96,   0.7,   1.1,   2.2,   0.5,  0.00, 
 06/02/12, 04:00,  -9.0,  96,   0.7,   1.1,   2.2,   0.0,  0.00, 
 06/02/12, 05:00, -10.0,  88,   0.7,   1.1,   2.2,   0.0,  0.00, 
 06/02/12, 06:00, -10.9,  92,   0.7,   1.1,   2.2,   0.0,  0.00, 
 06/02/12, 07:00, -11.5,  92,   0.6,   1.1,   2.2,   0.0,  0.00, 
 06/02/12, 08:00, -10.6,  96,   0.7,   1.1,   2.2,   0.0,  0.12, 
 06/02/12, 09:00,  -9.3,  95,   0.7,   1.1,   2.2,   0.0,  0.51, 
 06/02/12, 10:00,  -8.6,  93,   0.7,   1.1,   2.2,   0.0,  0.83, 
 06/02/12, 11:00,  -9.0,  77,   0.7,   1.1,   2.2,   0.5,  1.13, 
 06/02/12, 12:00,  -9.0,  75,   0.7,   1.1,   2.2,   0.0,  1.38, 
 06/02/12, 13:00,  -9.6,  76,   0.7,   1.1,   2.2,   0.0,  1.47, 
 06/02/12, 14:00,  -9.6,  83,   0.7,   1.1,   2.2,   0.0,  1.67, 
 06/02/12, 15:00, -10.4,  78,   0.7,   1.1,   2.2,   0.0,  0.94, 
 06/02/12, 16:00, -10.5,  81,   0.7,   1.1,   2.2,   0.0,  0.89, 
 06/02/12, 17:00, -10.9,  87,   0.7,   1.1,   2.2,   0.0,  0.44, 
 06/02/12, 18:00, -11.4,  85,   0.7,   1.1,   2.2,   0.0,  0.03, 
 06/02/12, 19:00, -11.4,  87,   0.7,   1.1,   2.2,   0.0,  0.00, 
 06/02/12, 20:00, -11.7,  88,   0.7,   1.1,   2.2,   0.0,  0.00, 
 06/02/12, 21:00, -12.5,  86,   0.7,   1.1,   2.2,   0.0,  0.00, 
 06/02/12, 22:00, -11.3,  73,   0.7,   1.1,   2.2,   0.5,  0.00, 
 06/02/12, 23:00, -11.6,  73,   0.7,   1.1,   2.2,   0.0,  0.00, 
 06/02/13, 00:00, -10.7,  69,   0.7,   1.1,   2.2,   0.0,  0.00, 
 06/02/13, 01:00, -12.6,  80,   0.7,   1.1,   2.2,   0.0,  0.00, 
 06/02/13, 02:00, -11.4,  80,   0.6,   1.1,   2.2,   0.0,  0.00, 
 06/02/13, 03:00, -10.9,  79,   0.6,   1.1,   2.2,   0.0,  0.00, 
 06/02/13, 04:00, -11.6,  79,   0.7,   1.1,   2.2,   0.0,  0.00, 
 06/02/13, 05:00,  -5.9,  29,   0.6,   1.1,   2.2,   0.0,  0.00, 
 06/02/13, 06:00,  -3.5,  21,   0.6,   1.1,   2.2,   0.0,  0.00, 
 06/02/13, 07:00,  -9.4,  74,   0.6,   1.1,   2.2,   0.0,  0.00, 
 06/02/13, 08:00,  -9.2,  69,   0.7,   1.1,   2.2,   0.0,  0.29, 
 06/02/13, 09:00,  -3.4,  40,   0.6,   1.1,   2.2,   0.0,  1.19, 
 06/02/13, 10:00,  -0.5,  25,   0.7,   1.1,   2.2,   0.0,  1.87, 
 06/02/13, 11:00,   1.1,  39,   0.7,   1.1,   2.2,   0.0,  2.37, 
 06/02/13, 12:00,   2.1,  38,   0.7,   1.1,   2.2,   0.0,  2.67, 
 06/02/13, 13:00,   3.0,  35,   0.7,   1.1,   2.2,   0.0,  2.70, 
 06/02/13, 14:00,   3.5,  44,   0.7,   1.1,   2.2,   0.0,  2.46, 
 06/02/13, 15:00,   4.4,  38,   0.7,   1.1,   2.2,   0.0,  1.95, 
 06/02/13, 16:00,   4.5,  38,   0.7,   1.1,   2.2,   0.0,  1.34, 
 06/02/13, 17:00,   3.1,  43,   0.7,   1.1,   2.2,   0.0,  0.47, 
 06/02/13, 18:00,   2.7,  41,   0.7,   1.1,   2.2,   0.0,  0.01, 
 06/02/13, 19:00,  -0.3,  60,   0.7,   1.1,   2.2,   0.0,  0.00, 
 06/02/13, 20:00,  -0.6,  61,   0.7,   1.1,   2.2,   0.0,  0.00, 
 06/02/13, 21:00,  -1.0,  59,   0.7,   1.1,   2.2,   0.0,  0.00, 
 06/02/13, 22:00,   2.7,  35,   0.7,   1.1,   2.2,   0.0,  0.00, 
 06/02/13, 23:00,  -0.1,  47,   0.7,   1.1,   2.2,   0.0,  0.00, 
 06/02/14, 00:00,   3.1,  33,   0.7,   1.1,   2.2,   0.0,  0.00, 
 06/02/14, 01:00,   3.7,  33,   0.7,   1.1,   2.2,   0.0,  0.00, 
 06/02/14, 02:00,   0.3,  49,   0.7,   1.1,   2.2,   0.0,  0.00, 
 06/02/14, 03:00,  -0.6,  50,   0.7,   1.1,   2.2,   0.0,  0.00, 
 06/02/14, 04:00,   0.7,  44,   0.7,   1.1,   2.2,   0.0,  0.00, 
 06/02/14, 05:00,   2.5,  33,   0.7,   1.1,   2.2,   0.0,  0.00, 
 06/02/14, 06:00,   2.3,  33,   0.7,   1.1,   2.2,   0.0,  0.00, 
 06/02/14, 07:00,   3.0,  19,   0.7,   1.1,   2.2,   0.0,  0.00, 
 06/02/14, 08:00,   4.4,  15,   0.7,   1.1,   2.2,   0.0,  0.30, 
 06/02/14, 09:00,   5.5,  16,   0.7,   1.1,   2.2,   0.0,  1.17, 
 06/02/14, 10:00,   6.2,  18,   0.7,   1.2,   2.3,   0.0,  1.80, 
 06/02/14, 11:00,   6.4,  19,   0.7,   1.1,   2.2,   0.0,  1.66, 
 06/02/14, 12:00,   6.2,  20,   0.7,   1.1,   2.2,   0.0,  0.72, 
 06/02/14, 13:00,   5.2,  34,   0.7,   1.1,   2.2,   0.0,  0.65, 
 06/02/14, 14:00,   4.4,  36,   0.7,   1.1,   2.2,   0.0,  0.30, 
 06/02/14, 15:00,   3.9,  56,   0.7,   1.1,   2.2,   0.0,  0.15, 
 06/02/14, 16:00,   0.8,  99,   0.7,   1.1,   2.2,   0.5,  0.05, 
 06/02/14, 17:00,   0.9,  99,   0.7,   1.2,   2.3,   2.0,  0.00, 
 06/02/14, 18:00,   1.6,  99,   0.7,   1.1,   2.1,   2.5,  0.00, 
 06/02/14, 19:00,   2.5,  99,   0.7,   1.1,   2.2,   1.0,  0.00, 
 06/02/14, 20:00,   2.8,  99,   0.7,   1.1,   2.2,   1.0,  0.00, 
 06/02/14, 21:00,   3.2,  99,   0.7,   1.1,   2.2,   0.0,  0.00, 
 06/02/14, 22:00,   3.4,  99,   0.7,   1.1,   2.1,   0.5,  0.00, 
 06/02/14, 23:00,   3.9,  99,   0.7,   1.1,   2.2,   0.0,  0.00, 
 06/02/15, 00:00,   4.2,  99,   0.7,   1.1,   2.2,   0.0,  0.00, 
 06/02/15, 01:00,   4.1,  99,   0.7,   1.1,   2.2,   0.0,  0.00, 
 06/02/15, 02:00,   4.6,  99,   0.7,   1.1,   2.2,   0.0,  0.00, 
 06/02/15, 03:00,   4.6,  99,   0.7,   1.1,   2.2,   0.0,  0.00, 
 06/02/15, 04:00,   4.4,  99,   0.7,   1.1,   2.1,   0.0,  0.00, 
 06/02/15, 05:00,   4.5,  96,   0.7,   1.1,   2.2,   0.0,  0.00, 
 06/02/15, 06:00,   4.1,  98,   0.7,   1.1,   2.1,   0.0,  0.00, 
 06/02/15, 07:00,   3.6,  95,   0.7,   1.1,   2.1,   0.0,  0.00, 
 06/02/15, 08:00,   4.6,  93,   0.7,   1.1,   2.1,   0.0,  0.36, 
 06/02/15, 09:00,   5.7,  83,   0.7,   1.1,   2.1,   0.5,  0.82, 
 06/02/15, 10:00,   6.0,  82,   0.7,   1.1,   2.2,   0.0,  1.13, 
 06/02/15, 11:00,   7.5,  75,   0.7,   1.1,   2.1,   0.0,  2.08, 
 06/02/15, 12:00,   7.9,  73,   0.7,   1.1,   2.1,   0.0,  2.47, 
 06/02/15, 13:00,   8.4,  70,   0.7,   1.1,   2.2,   0.0,  1.83, 
 06/02/15, 14:00,   8.4,  70,   0.7,   1.1,   2.1,   0.0,  2.18, 
 06/02/15, 15:00,   8.6,  68,   0.7,   1.1,   2.2,   0.0,  1.53, 
 06/02/15, 16:00,   6.9,  77,   0.7,   1.2,   2.2,   0.0,  0.22, 
 06/02/15, 17:00,   4.0,  88,   0.7,   1.1,   2.1,   0.0,  0.01, 
 06/02/15, 18:00,   4.3,  90,   0.7,   1.1,   2.1,   0.0,  0.00, 
 06/02/15, 19:00,   4.1,  92,   0.7,   1.1,   2.1,   0.0,  0.00, 
 06/02/15, 20:00,   2.8,  99,   0.7,   1.1,   2.1,   0.0,  0.00, 
 06/02/15, 21:00,   2.3,  99,   0.7,   1.1,   2.2,   0.0,  0.00, 
 06/02/15, 22:00,   1.8,  99,   0.7,   1.1,   2.1,   1.0,  0.00, 
 06/02/15, 23:00,   1.4,  99,   0.7,   1.2,   2.1,   1.0,  0.00, 
 06/02/16, 00:00,   5.3,  99,   0.7,   1.2,   2.2,   0.5,  0.00, 
 06/02/16, 01:00,   5.9,  99,   0.7,   1.0,   2.1,   0.0,  0.00, 